[[{"header":{"parameterUnit":"m.s-1","parameterCategory":2,"la1":30.2991,"la2":30.254,"lo1":-89.0895,"lo2":-89.0444,"dy":0.0017,"dx":0.0017,"nx":28,"ny":28,"refTime":"2024-05-28T21:00:00:Z","depth":"0","parameterNumber":2,"parameterNumberName":"U-component_of_CURRENTS"},"data":[0,0,0,0,0,0,0,0,0,0,0,0,0,0,0,0,0,0,0,0,0,0,0,0,0,0,0,0,0,0,0,0,0,0,0,0,0,0,0,0,0,0,0,0,0,0,0,0,0,0,0,0,0,0,0,0,0,0,0.1956,0.1957,0,0.2075,0.2076,0.2078,0.2156,0.2156,0.2156,0.2156,0.2285,0.2288,0.2291,0,0,0,0,0,0,0,0,0,0,0,0,0,0.1877,0.1877,0.1956,0.1957,0.1958,0.2074,0.2076,0.2078,0.2156,0.2156,0.2156,0.2157,0.2284,0.2287,0.2291,0,0,0,0,0,0,0,0,0,0,0,0,0,0.1948,0.1878,0.1956,0.2008,0.2014,0.2074,0.2076,0.2079,0.2156,0.2156,0.2156,0.2157,0.2282,0.2287,0.2292,0.2316,0,0,0.2307,0.2309,0,0,0,0,0,0,0,0,0.1944,0.1951,0.1999,0.2005,0.2011,0.2098,0.2095,0.2157,0.2156,0.2106,0.2156,0.2157,0.222,0.223,0.2257,0.2322,0.2328,0.2307,0.231,0.2312,0.2313,0,0,0,0,0,0,0,0.1938,0.1947,0.2007,0.2,0.2008,0.2053,0.2063,0.2108,0.2163,0.211,0.2115,0.2123,0.2224,0.2252,0.2261,0.233,0.2307,0.2311,0.2314,0.2316,0.2401,0.24,0,0,0,0,0,0,0.1912,0.1942,0.2003,0.201,0.1973,0.2054,0.2065,0.2072,0.2163,0.2175,0.2122,0.2126,0.2244,0.2255,0.2265,0.2298,0.2312,0.2317,0.2319,0.2402,0.2401,0.24,0,0,0,0,0,0,0.191,0.1917,0.1998,0.1976,0.1989,0.2054,0.2062,0.2075,0.2104,0.2171,0.2185,0.2138,0.2244,0.2258,0.2304,0.2303,0.2319,0.2323,0.2402,0.2401,0.24,0.2363,0,0,0,0,0,0,0.1907,0.1915,0.1919,0.1974,0.1989,0.2042,0.2062,0.2077,0.2106,0.2112,0.2189,0.2201,0.2246,0.2297,0.2309,0.231,0.2327,0.2403,0.2402,0.2401,0.2365,0.2361,0.2357,0,0,0,0,0,0.1904,0.1919,0.1918,0.1926,0.1989,0.2042,0.2056,0.2105,0.2106,0.213,0.2169,0.2199,0.2297,0.2301,0.2315,0.2317,0.2404,0.2402,0.2401,0.2367,0.2362,0.2357,0,0,0,0,0,0,0.1895,0.1929,0.193,0.1955,0.1992,0.2054,0.2086,0.2099,0.2149,0.2154,0.2203,0.2219,0.2258,0.2287,0.2289,0.2334,0.235,0.2352,0.2319,0.2315,0.2311,0.2323,0.2331,0,0,0,0,0,0.1887,0.1904,0.194,0.196,0.1979,0.2023,0.205,0.2077,0.2122,0.2145,0.2187,0.2227,0.2264,0.2287,0.2331,0.2361,0.244,0.2365,0.2361,0.2358,0.2375,0.2446,0.2451,0.2395,0.2395,0.2395,0,0,0.1885,0.1908,0.1916,0.1958,0.1995,0.2033,0.2043,0.2086,0.2111,0.215,0.2199,0.2223,0.2268,0.2305,0.2323,0.2329,0.2429,0.2356,0.2353,0.2373,0.2445,0.2451,0.2456,0.2394,0.2394,0.2395,0,0,0.1909,0.1914,0.1943,0.1974,0.2019,0.2044,0.2048,0.2099,0.2119,0.2157,0.2182,0.2201,0.2265,0.2292,0.2313,0.231,0.2407,0.2315,0.2309,0.2376,0.2383,0.2389,0.2563,0.2585,0.231,0.231,0.231,0,0.1907,0.1944,0.1961,0.2004,0.203,0.2043,0.2082,0.2105,0.2158,0.2169,0.2169,0.2234,0.2261,0.2299,0.2293,0.2304,0.2397,0.2325,0.2374,0.2381,0.2388,0.2565,0.2589,0.2308,0.2308,0.2308,0.2308,0,0.1959,0.1988,0.2013,0.2059,0.2087,0.2124,0.2146,0.2164,0.2167,0.2183,0.2211,0.2237,0.2278,0.2269,0.2286,0.2331,0.2407,0.2365,0.2391,0.2392,0.2579,0.2605,0.2305,0.2306,0.2306,0.2307,0,0,0.1959,0.2032,0.2041,0.2068,0.2116,0.2144,0.2172,0.2202,0.2221,0.2232,0.2262,0.2277,0.2276,0.2299,0.2305,0.2343,0.2477,0.2373,0.2378,0.2559,0.2727,0.2779,0.2814,0.2445,0.2447,0.2449,0.2863,0,0.1997,0.2074,0.2099,0.2158,0.2195,0.2209,0.2236,0.2255,0.2266,0.2296,0.2287,0.2328,0.2292,0.2316,0.234,0.2438,0.2534,0.2376,0.2689,0.2701,0.2754,0.2839,0.2758,0.3117,0.2889,0.2894,0.2897,0,0.2042,0.2086,0.215,0.2204,0.2221,0.225,0.2285,0.2312,0.2339,0.2352,0.2364,0.238,0.2441,0.2397,0.2591,0.2497,0.2625,0.2697,0.2713,0.279,0.2798,0.3065,0.3175,0.3026,0.2938,0.2935,0.2932,0,0.2039,0.2118,0.2163,0.2186,0.2248,0.2269,0.2295,0.2325,0.235,0.2399,0.2437,0.2487,0.2555,0.2657,0.2794,0.2721,0.3036,0.2956,0.3149,0.316,0.3168,0.3172,0.3173,0.313,0.3129,0.3128,0.3127,0,0.2069,0.2107,0.2165,0.2195,0.2236,0.2275,0.2319,0.2346,0.2397,0.2448,0.2469,0.2546,0.2618,0.278,0.2879,0.3128,0.3128,0.3206,0.3261,0.3159,0.3157,0.3086,0.2999,0.3143,0.314,0.3137,0.3134,0,0.206,0.2106,0.2158,0.2221,0.224,0.2265,0.2333,0.2363,0.2425,0.2502,0.2534,0.2652,0.288,0.3003,0.3236,0.3285,0.3404,0.3576,0.3506,0.3541,0.3518,0.3433,0.3476,0.338,0.3869,0.3873,0.3876,0,0.2059,0.2086,0.2159,0.2182,0.2212,0.2258,0.229,0.2359,0.2408,0.2576,0.2626,0.2862,0.3029,0.3413,0.355,0.3817,0.361,0.3886,0.3683,0.3553,0.35,0.3304,0.3201,0.3737,0.3739,0.374,0.3741,0,0.2041,0.2068,0.2109,0.2158,0.2196,0.224,0.2307,0.2352,0.2459,0.2572,0.2769,0.2929,0.3298,0.3514,0.383,0.3944,0.3661,0.3924,0.3773,0.3401,0.3205,0.3125,0.35,0.3753,0.3752,0.3751,0.375,0.375,0.201,0.2029,0.208,0.2124,0.2164,0.2211,0.2249,0.2349,0.246,0.2629,0.2817,0.3057,0.3371,0.3794,0.3876,0.3915,0.3833,0.3821,0.3757,0.3592,0.3371,0.3825,0.4108,0.4109,0.4109,0.411,0.4111,0,0.197,0.2005,0.204,0.2096,0.2125,0.2165,0.2249,0.2294,0.2431,0.2635,0.2833,0.3185,0.3425,0.3624,0.3816,0.3741,0.3529,0.3622,0.3272,0.3197,0.3623,0.3477,0.3648,0.3648,0.3648,0.3648,0.3648,0.3648,0.195,0.1978,0.2007,0.2042,0.208,0.2117,0.216,0.2246,0.2382,0.2613,0.282,0.3022,0.3306,0.3515,0.3503,0.344,0.3129,0.3068,0.2984,0.321,0.3218,0.3226,0.3062,0.3143,0.3142,0.2429,0.2423,0.2419]},{"header":{"parameterUnit":"m.s-1","parameterCategory":2,"la1":30.2991,"la2":30.254,"lo1":-89.0895,"lo2":-89.0444,"dy":0.0017,"dx":0.0017,"nx":28,"ny":28,"refTime":"2024-05-28T21:00:00:Z","depth":"0","parameterNumber":3,"parameterNumberName":"V-component_of_CURRENTS"},"data":[0,0,0,0,0,0,0,0,0,0,0,0,0,0,0,0,0,0,0,0,0,0,0,0,0,0,0,0,0,0,0,0,0,0,0,0,0,0,0,0,0,0,0,0,0,0,0,0,0,0,0,0,0,0,0,0,0,0,-0.0414,-0.0415,0,-0.0528,-0.053,-0.0531,-0.0575,-0.0575,-0.0574,-0.0574,-0.0672,-0.0675,-0.0678,0,0,0,0,0,0,0,0,0,0,0,0,0,-0.0261,-0.0263,-0.0414,-0.0416,-0.0417,-0.0528,-0.053,-0.0531,-0.0575,-0.0575,-0.0574,-0.0574,-0.0671,-0.0675,-0.0678,0,0,0,0,0,0,0,0,0,0,0,0,0,-0.0346,-0.0264,-0.0414,-0.0453,-0.0457,-0.0528,-0.053,-0.0532,-0.0575,-0.0575,-0.0574,-0.0574,-0.067,-0.0674,-0.0679,-0.0714,0,0,-0.0692,-0.0694,0,0,0,0,0,0,0,0,-0.0341,-0.0352,-0.0445,-0.045,-0.0455,-0.0537,-0.0512,-0.0592,-0.0575,-0.053,-0.0574,-0.0574,-0.0626,-0.0634,-0.0656,-0.0719,-0.0723,-0.0692,-0.0695,-0.0697,-0.0698,0,0,0,0,0,0,0,-0.0335,-0.0347,-0.0459,-0.0447,-0.0453,-0.0473,-0.0485,-0.0527,-0.0579,-0.0534,-0.0537,-0.0551,-0.0629,-0.0652,-0.0659,-0.0724,-0.0692,-0.0696,-0.0699,-0.07,-0.0825,-0.0825,0,0,0,0,0,0,-0.0321,-0.0342,-0.0455,-0.0462,-0.0396,-0.0476,-0.0489,-0.0511,-0.0579,-0.0589,-0.0551,-0.0552,-0.0645,-0.0654,-0.0662,-0.071,-0.0697,-0.0701,-0.0703,-0.0824,-0.0825,-0.0825,0,0,0,0,0,0,-0.0318,-0.0331,-0.0451,-0.0404,-0.0421,-0.0479,-0.0504,-0.0514,-0.0542,-0.0592,-0.0601,-0.0569,-0.0645,-0.0656,-0.0705,-0.0713,-0.0703,-0.0707,-0.0823,-0.0824,-0.0825,-0.0803,0,0,0,0,0,0,-0.0313,-0.0329,-0.0338,-0.0404,-0.0423,-0.0495,-0.0505,-0.0516,-0.0551,-0.0554,-0.0611,-0.0619,-0.0645,-0.0698,-0.0709,-0.0719,-0.071,-0.0822,-0.0823,-0.0825,-0.0803,-0.0803,-0.0803,0,0,0,0,0,-0.0307,-0.0322,-0.0338,-0.0351,-0.0434,-0.0496,-0.0508,-0.0547,-0.0552,-0.057,-0.0605,-0.0618,-0.0714,-0.0703,-0.0715,-0.0727,-0.0821,-0.0823,-0.0825,-0.0802,-0.0803,-0.0803,0,0,0,0,0,0,-0.0262,-0.033,-0.0348,-0.0383,-0.0436,-0.0503,-0.0521,-0.055,-0.0594,-0.0591,-0.0634,-0.0646,-0.0689,-0.0714,-0.0701,-0.0766,-0.0767,-0.0772,-0.0746,-0.0747,-0.0747,-0.071,-0.0714,0,0,0,0,0,-0.0256,-0.0282,-0.0352,-0.0379,-0.0403,-0.0462,-0.049,-0.052,-0.0568,-0.0587,-0.0626,-0.0665,-0.0707,-0.073,-0.0769,-0.0811,-0.0777,-0.0825,-0.0825,-0.0825,-0.0804,-0.078,-0.0775,-0.0831,-0.0831,-0.0831,0,0,-0.0243,-0.0285,-0.0299,-0.037,-0.041,-0.0445,-0.0478,-0.0521,-0.0545,-0.0591,-0.0628,-0.067,-0.0719,-0.0762,-0.0783,-0.0783,-0.0785,-0.0827,-0.0826,-0.0805,-0.0781,-0.0775,-0.077,-0.0832,-0.0831,-0.0831,0,0,-0.0234,-0.0272,-0.0291,-0.0332,-0.0393,-0.0432,-0.0444,-0.0513,-0.0539,-0.0588,-0.0621,-0.0665,-0.0733,-0.0766,-0.0792,-0.0819,-0.0788,-0.0835,-0.0808,-0.0786,-0.0781,-0.0775,-0.0688,-0.0675,-0.0835,-0.0835,-0.0835,0,-0.0215,-0.0254,-0.0306,-0.0335,-0.0358,-0.0423,-0.0443,-0.0486,-0.0559,-0.0572,-0.0593,-0.0679,-0.0731,-0.0771,-0.0785,-0.0817,-0.0772,-0.0803,-0.0783,-0.0777,-0.0772,-0.0685,-0.0671,-0.0834,-0.0834,-0.0834,-0.0835,0,-0.0226,-0.0252,-0.0266,-0.0319,-0.035,-0.0382,-0.044,-0.0471,-0.0506,-0.0543,-0.0589,-0.0659,-0.0699,-0.0737,-0.0775,-0.0776,-0.0741,-0.0783,-0.0773,-0.0764,-0.0673,-0.0659,-0.0833,-0.0833,-0.0834,-0.0834,0,0,-0.0197,-0.0259,-0.0263,-0.0275,-0.0341,-0.0368,-0.0398,-0.0444,-0.0447,-0.052,-0.0517,-0.062,-0.0642,-0.0672,-0.0725,-0.0727,-0.0662,-0.0736,-0.0735,-0.0631,-0.0548,-0.0532,-0.0514,-0.0695,-0.0694,-0.0692,-0.0483,0,-0.0189,-0.0222,-0.0256,-0.0276,-0.0296,-0.0342,-0.0358,-0.04,-0.0437,-0.045,-0.0517,-0.054,-0.0622,-0.0631,-0.065,-0.0655,-0.0628,-0.071,-0.0587,-0.0582,-0.0555,-0.05,-0.0492,-0.0307,-0.0469,-0.0467,-0.0465,0,-0.019,-0.0211,-0.0225,-0.0246,-0.0256,-0.0269,-0.0286,-0.0309,-0.0342,-0.0361,-0.0393,-0.0434,-0.0449,-0.0522,-0.0495,-0.0536,-0.0531,-0.0539,-0.0532,-0.0513,-0.0541,-0.0353,-0.0275,-0.0482,-0.0443,-0.0445,-0.0446,0,-0.0149,-0.0186,-0.0189,-0.0202,-0.024,-0.0237,-0.0248,-0.0278,-0.0269,-0.0285,-0.0254,-0.0304,-0.0278,-0.031,-0.0333,-0.0398,-0.027,-0.0362,-0.0332,-0.0327,-0.0294,-0.0291,-0.0389,-0.0326,-0.0327,-0.0327,-0.0328,0,-0.0133,-0.0135,-0.0167,-0.0171,-0.0151,-0.0188,-0.0161,-0.0179,-0.0169,-0.011,-0.019,-0.0125,-0.0223,-0.0181,-0.0242,-0.0203,-0.0184,-0.0286,-0.0275,-0.0284,-0.0283,-0.0443,-0.0565,-0.0319,-0.0321,-0.0323,-0.0324,0,-0.0092,-0.012,-0.0119,-0.0138,-0.0135,-0.0116,-0.009,-0.0063,-0.0057,0.0031,0.0048,0.006,0.0134,0.006,0.0061,-0.0041,-0.0125,-0.0041,-0.0011,-0.0004,-0.0231,-0.035,-0.0341,-0.0416,0.0025,0.0027,0.0028,0,-0.0073,-0.0072,-0.0076,-0.0053,-0.0057,-0.0033,-0.0002,-0.0006,0.0049,0.0168,0.0243,0.0328,0.0436,0.0451,0.0287,0.0235,0.0018,0.0155,-0.0014,-0.0209,-0.0334,-0.0413,-0.0485,0.0072,0.0074,0.0075,0.0076,0,-0.0023,-0.0026,-0.0019,0.0027,0.006,0.0103,0.0159,0.0226,0.0277,0.0402,0.0609,0.0716,0.0712,0.0681,0.054,0.0428,-0.0001,0.0178,-0.0042,-0.031,-0.038,-0.0457,-0.0064,0.0087,0.0086,0.0085,0.0085,0.0084,0.0032,0.0056,0.0075,0.0125,0.0171,0.0265,0.036,0.0466,0.0632,0.0892,0.0933,0.1196,0.0991,0.081,0.0591,0.013,0.0116,-0.0037,-0.0151,-0.0201,-0.0343,0.0102,0.0248,0.0248,0.0247,0.0247,0.0247,0,0.0111,0.0135,0.0182,0.0256,0.0346,0.0343,0.0495,0.0646,0.0924,0.1177,0.1419,0.1528,0.124,0.0849,0.0245,-0.0129,-0.0311,-0.0354,-0.051,-0.0561,-0.0166,-0.0245,-0.0178,-0.0178,-0.0178,-0.0178,-0.0178,-0.0177,0.0159,0.022,0.024,0.0405,0.0476,0.0652,0.0771,0.1017,0.1243,0.1662,0.19,0.2042,0.1706,0.0528,-0.033,-0.0549,-0.085,-0.0863,-0.1016,-0.0833,-0.0815,-0.0798,-0.0905,-0.0979,-0.098,-0.1372,-0.1376,-0.138]}],[{"header":{"parameterUnit":"m.s-1","parameterCategory":2,"la1":30.2991,"la2":30.254,"lo1":-89.0895,"lo2":-89.0444,"dy":0.0017,"dx":0.0017,"nx":28,"ny":28,"refTime":"2024-05-28T21:00:00:Z","depth":"2","parameterNumber":2,"parameterNumberName":"U-component_of_CURRENTS"},"data":[0,0,0,0,0,0,0,0,0,0,0,0,0,0,0,0,0,0,0,0,0,0,0,0,0,0,0,0,0,0,0,0,0,0,0,0,0,0,0,0,0,0,0,0,0,0,0,0,0,0,0,0,0,0,0,0,0,0,0.1853,0.1852,0,0.1756,0.1755,0.1753,0.1725,0.1726,0.1727,0.1728,0.1659,0.1657,0.1654,0,0,0,0,0,0,0,0,0,0,0,0,0,0.1826,0.1827,0.1853,0.1852,0.1851,0.1756,0.1755,0.1753,0.1725,0.1726,0.1727,0.1728,0.166,0.1657,0.1654,0,0,0,0,0,0,0,0,0,0,0,0,0,0.1791,0.1828,0.1853,0.1829,0.1826,0.1757,0.1755,0.1753,0.1725,0.1726,0.1728,0.1729,0.1661,0.1657,0.1653,0.1602,0,0,0.1641,0.1639,0,0,0,0,0,0,0,0,0.1793,0.1791,0.1833,0.183,0.1827,0.1758,0.172,0.1705,0.1725,0.1759,0.1728,0.1729,0.1696,0.169,0.1662,0.1599,0.1596,0.1641,0.1638,0.1637,0.1635,0,0,0,0,0,0,0,0.1796,0.1794,0.181,0.1832,0.1829,0.1759,0.1757,0.1716,0.1719,0.1756,0.1755,0.175,0.1695,0.1666,0.1661,0.1595,0.1641,0.1637,0.1635,0.1633,0.1568,0.1568,0,0,0,0,0,0,0.1825,0.1798,0.1813,0.1808,0.1818,0.176,0.1757,0.1775,0.1718,0.1712,0.1749,0.1749,0.1672,0.1665,0.1658,0.1679,0.1637,0.1633,0.1631,0.1567,0.1568,0.1569,0,0,0,0,0,0,0.1825,0.1828,0.1817,0.1802,0.1797,0.1761,0.178,0.1773,0.1773,0.1714,0.1707,0.1761,0.1673,0.1664,0.1643,0.1674,0.1631,0.1627,0.1566,0.1567,0.1568,0.1667,0,0,0,0,0,0,0.1825,0.1829,0.184,0.1805,0.1799,0.1796,0.1779,0.177,0.1768,0.1768,0.1721,0.1714,0.1673,0.165,0.1639,0.1667,0.1624,0.1565,0.1567,0.1568,0.1663,0.1672,0.1679,0,0,0,0,0,0.1824,0.1846,0.1842,0.1843,0.1821,0.1797,0.1786,0.176,0.1768,0.1766,0.1739,0.1717,0.1651,0.1646,0.1634,0.1662,0.1565,0.1566,0.1568,0.166,0.167,0.1679,0,0,0,0,0,0,0.1834,0.1844,0.184,0.1862,0.1839,0.1794,0.1793,0.1778,0.1752,0.1767,0.1714,0.1704,0.1698,0.1662,0.1659,0.1646,0.1608,0.1608,0.1683,0.1691,0.1699,0.1719,0.1621,0,0,0,0,0,0.1844,0.1868,0.1853,0.1866,0.187,0.1837,0.1823,0.1813,0.1788,0.178,0.1745,0.1715,0.1686,0.1679,0.1639,0.1629,0.1659,0.1641,0.1649,0.1656,0.1664,0.1728,0.1743,0.1573,0.1573,0.1573,0,0,0.1844,0.1857,0.1866,0.1869,0.1857,0.1861,0.1833,0.1837,0.1837,0.1776,0.1771,0.1736,0.1687,0.1675,0.1671,0.1657,0.173,0.1658,0.1664,0.1668,0.1731,0.1748,0.1763,0.1574,0.1574,0.1574,0,0,0.1869,0.1884,0.1916,0.191,0.1912,0.1891,0.1905,0.1882,0.1875,0.1856,0.1822,0.1807,0.1755,0.1728,0.1709,0.1734,0.1764,0.1733,0.1795,0.1858,0.1874,0.1887,0.2,0.2023,0.1744,0.1745,0.1745,0,0.1871,0.1907,0.1912,0.194,0.1935,0.1919,0.1935,0.1922,0.1889,0.1886,0.1875,0.1821,0.1779,0.1774,0.1784,0.1754,0.182,0.1767,0.1873,0.1886,0.1899,0.2011,0.2035,0.1749,0.1749,0.1748,0.1748,0,0.1916,0.1939,0.196,0.1993,0.1988,0.1998,0.1992,0.1994,0.1987,0.1965,0.1962,0.1907,0.1884,0.1869,0.1832,0.1893,0.1925,0.1875,0.1859,0.1923,0.2036,0.2059,0.1757,0.1755,0.1753,0.1752,0,0,0.1931,0.1981,0.1986,0.1996,0.2016,0.2012,0.204,0.2037,0.2062,0.2036,0.2062,0.2006,0.2,0.1977,0.1942,0.1984,0.2134,0.1983,0.1984,0.2114,0.2343,0.2286,0.2306,0.2123,0.2127,0.2129,0.2408,0,0.1957,0.2008,0.2025,0.2047,0.2066,0.2066,0.2084,0.2089,0.2093,0.2117,0.2091,0.21,0.2038,0.2052,0.2085,0.2103,0.2193,0.2067,0.2244,0.225,0.2205,0.2327,0.2087,0.2307,0.2431,0.2435,0.2437,0,0.1994,0.2017,0.2055,0.2073,0.2084,0.2098,0.2127,0.2141,0.2181,0.2196,0.222,0.2215,0.2261,0.2207,0.2323,0.226,0.2327,0.2349,0.236,0.228,0.2233,0.2249,0.2344,0.2476,0.2473,0.247,0.2468,0,0.1991,0.203,0.2054,0.206,0.2091,0.211,0.2125,0.2166,0.2194,0.2271,0.2322,0.236,0.2411,0.2471,0.2522,0.2455,0.2681,0.2585,0.2613,0.2613,0.2424,0.24,0.2719,0.2718,0.2718,0.2717,0.2716,0,0.2007,0.202,0.2055,0.2066,0.2092,0.2119,0.2163,0.2197,0.2268,0.2326,0.2372,0.2441,0.2485,0.2599,0.2622,0.2715,0.2781,0.2667,0.2682,0.2455,0.2431,0.2558,0.2535,0.2727,0.2725,0.2723,0.2721,0,0.2006,0.2032,0.2052,0.2084,0.2097,0.2119,0.218,0.2221,0.2303,0.2396,0.244,0.2557,0.2714,0.2786,0.2919,0.2855,0.2932,0.2962,0.2722,0.2699,0.2806,0.2785,0.301,0.301,0.301,0.301,0.3011,0,0.2007,0.2023,0.2058,0.2076,0.2093,0.2131,0.2167,0.2233,0.2286,0.2453,0.2505,0.2704,0.2812,0.3004,0.2967,0.3059,0.3078,0.2859,0.2634,0.2845,0.2837,0.2816,0.2795,0.2466,0.2462,0.2458,0.2456,0,0.1994,0.2014,0.2036,0.2074,0.2107,0.2141,0.2198,0.2238,0.234,0.2447,0.2603,0.2713,0.2882,0.2833,0.2933,0.2917,0.2799,0.2787,0.3113,0.2398,0.2346,0.2333,0.2328,0.2424,0.2427,0.243,0.2431,0.2433,0.1977,0.1992,0.2027,0.2064,0.21,0.214,0.2147,0.223,0.232,0.2374,0.2526,0.2576,0.2617,0.2612,0.2597,0.2564,0.2719,0.2543,0.2549,0.256,0.2415,0.2361,0.2422,0.2425,0.2428,0.243,0.2432,0,0.1944,0.1978,0.2011,0.2043,0.206,0.2104,0.2155,0.211,0.2187,0.2234,0.2293,0.2115,0.214,0.2229,0.2124,0.2123,0.2049,0.2042,0.1908,0.1943,0.1973,0.1791,0.1638,0.1635,0.1633,0.1631,0,0,0.1927,0.1954,0.1981,0.1992,0.2017,0.1992,0.2005,0.1939,0.1924,0.1843,0.182,0.1884,0.209,0.1776,0.1781,0.1696,0.1785,0.1632,0.2272,0.2144,0.217,0.2277,0.204,0,0,0,0,0]},{"header":{"parameterUnit":"m.s-1","parameterCategory":2,"la1":30.2991,"la2":30.254,"lo1":-89.0895,"lo2":-89.0444,"dy":0.0017,"dx":0.0017,"nx":28,"ny":28,"refTime":"2024-05-28T21:00:00:Z","depth":"2","parameterNumber":3,"parameterNumberName":"V-component_of_CURRENTS"},"data":[0,0,0,0,0,0,0,0,0,0,0,0,0,0,0,0,0,0,0,0,0,0,0,0,0,0,0,0,0,0,0,0,0,0,0,0,0,0,0,0,0,0,0,0,0,0,0,0,0,0,0,0,0,0,0,0,0,0,-0.0396,-0.0396,0,-0.0423,-0.0424,-0.0425,-0.0474,-0.0475,-0.0475,-0.0475,-0.0632,-0.0635,-0.0639,0,0,0,0,0,0,0,0,0,0,0,0,0,-0.0293,-0.0295,-0.0396,-0.0396,-0.0396,-0.0423,-0.0424,-0.0425,-0.0474,-0.0475,-0.0475,-0.0476,-0.063,-0.0635,-0.0639,0,0,0,0,0,0,0,0,0,0,0,0,0,-0.0336,-0.0296,-0.0396,-0.0419,-0.0421,-0.0423,-0.0424,-0.0425,-0.0474,-0.0475,-0.0475,-0.0476,-0.0629,-0.0634,-0.064,-0.0662,0,0,-0.0657,-0.066,0,0,0,0,0,0,0,0,-0.0334,-0.0341,-0.0416,-0.0418,-0.042,-0.0441,-0.0444,-0.0509,-0.0474,-0.046,-0.0475,-0.0476,-0.0576,-0.0586,-0.0596,-0.0669,-0.0676,-0.0658,-0.0661,-0.0664,-0.0665,0,0,0,0,0,0,0,-0.0331,-0.0339,-0.0413,-0.0416,-0.0418,-0.0395,-0.0404,-0.0456,-0.0521,-0.0461,-0.0463,-0.0457,-0.0578,-0.059,-0.06,-0.0678,-0.0658,-0.0663,-0.0666,-0.0668,-0.0806,-0.0806,0,0,0,0,0,0,-0.0321,-0.0337,-0.0412,-0.0413,-0.0371,-0.0397,-0.0406,-0.0438,-0.0517,-0.0527,-0.0457,-0.0459,-0.058,-0.0593,-0.0606,-0.0667,-0.0663,-0.0669,-0.0672,-0.0805,-0.0806,-0.0806,0,0,0,0,0,0,-0.0319,-0.0329,-0.041,-0.0368,-0.0376,-0.0398,-0.0433,-0.0438,-0.0458,-0.0511,-0.0525,-0.0471,-0.0581,-0.0598,-0.0671,-0.0672,-0.0671,-0.0676,-0.0805,-0.0805,-0.0806,-0.077,0,0,0,0,0,0,-0.0317,-0.0329,-0.0343,-0.0369,-0.0378,-0.0409,-0.0432,-0.0438,-0.045,-0.0454,-0.0529,-0.0543,-0.0583,-0.0663,-0.0677,-0.068,-0.0681,-0.0805,-0.0805,-0.0806,-0.0771,-0.0769,-0.0768,0,0,0,0,0,-0.0314,-0.0333,-0.0344,-0.0352,-0.04,-0.0407,-0.0411,-0.043,-0.045,-0.0453,-0.0519,-0.0541,-0.0675,-0.0668,-0.0685,-0.0689,-0.0804,-0.0805,-0.0806,-0.0772,-0.0769,-0.0768,0,0,0,0,0,0,-0.0295,-0.034,-0.0353,-0.0387,-0.0391,-0.0414,-0.042,-0.0432,-0.0483,-0.0505,-0.056,-0.0579,-0.064,-0.0671,-0.0662,-0.0728,-0.0737,-0.0741,-0.0706,-0.0704,-0.0703,-0.0671,-0.0686,0,0,0,0,0,-0.0295,-0.0325,-0.035,-0.037,-0.0382,-0.0402,-0.0407,-0.0423,-0.0466,-0.0488,-0.0535,-0.0595,-0.0652,-0.0684,-0.0736,-0.0781,-0.0781,-0.0789,-0.0787,-0.0786,-0.077,-0.0781,-0.0778,-0.0808,-0.0808,-0.0808,0,0,-0.0286,-0.0316,-0.0329,-0.0366,-0.0384,-0.0395,-0.041,-0.0427,-0.0435,-0.0501,-0.0543,-0.0598,-0.0664,-0.0715,-0.0742,-0.0744,-0.0776,-0.0786,-0.0785,-0.077,-0.0781,-0.0778,-0.0775,-0.0808,-0.0808,-0.0808,0,0,-0.028,-0.0322,-0.0343,-0.0353,-0.0376,-0.039,-0.0394,-0.0424,-0.0441,-0.0483,-0.0536,-0.0589,-0.0666,-0.0708,-0.0742,-0.0762,-0.0771,-0.0777,-0.0743,-0.0754,-0.0751,-0.0748,-0.0733,-0.0729,-0.0772,-0.0772,-0.0772,0,-0.0264,-0.0304,-0.034,-0.0359,-0.0361,-0.0389,-0.0396,-0.0417,-0.046,-0.0474,-0.0494,-0.0598,-0.0658,-0.0713,-0.0722,-0.0757,-0.0754,-0.0746,-0.075,-0.0747,-0.0745,-0.073,-0.0726,-0.077,-0.077,-0.077,-0.077,0,-0.0274,-0.0298,-0.0311,-0.0351,-0.0358,-0.0368,-0.0395,-0.0412,-0.0437,-0.0452,-0.0503,-0.0576,-0.0631,-0.0657,-0.0703,-0.0721,-0.072,-0.0749,-0.0749,-0.074,-0.0725,-0.0721,-0.0768,-0.0768,-0.0769,-0.0769,0,0,-0.0255,-0.0307,-0.0309,-0.0315,-0.0355,-0.0356,-0.0382,-0.0399,-0.0407,-0.0447,-0.0449,-0.0547,-0.0573,-0.0612,-0.0666,-0.0675,-0.0668,-0.0701,-0.0702,-0.0674,-0.0667,-0.0661,-0.0657,-0.0697,-0.0696,-0.0696,-0.0657,0,-0.0246,-0.0268,-0.0299,-0.03,-0.0312,-0.0342,-0.0351,-0.0373,-0.0398,-0.0406,-0.0464,-0.0494,-0.056,-0.0581,-0.0608,-0.0652,-0.066,-0.0674,-0.069,-0.0689,-0.0677,-0.0654,-0.0618,-0.058,-0.0654,-0.0653,-0.0653,0,-0.0244,-0.0257,-0.0264,-0.0274,-0.0282,-0.0286,-0.03,-0.0308,-0.0339,-0.0355,-0.0393,-0.0433,-0.0467,-0.0515,-0.0569,-0.0573,-0.0617,-0.0643,-0.0643,-0.0645,-0.0678,-0.0605,-0.0572,-0.0648,-0.0648,-0.0649,-0.0649,0,-0.0206,-0.0228,-0.0226,-0.0231,-0.0254,-0.0258,-0.0266,-0.0295,-0.0282,-0.0311,-0.0288,-0.0362,-0.0355,-0.0433,-0.0502,-0.0534,-0.0533,-0.0589,-0.062,-0.0619,-0.0593,-0.0591,-0.0619,-0.0619,-0.0619,-0.0619,-0.0619,0,-0.0186,-0.018,-0.0207,-0.0203,-0.0183,-0.0218,-0.0201,-0.0218,-0.0219,-0.017,-0.025,-0.0213,-0.0329,-0.0351,-0.0453,-0.0507,-0.05,-0.0595,-0.0608,-0.058,-0.0577,-0.0648,-0.0652,-0.0618,-0.0618,-0.0618,-0.0618,0,-0.0146,-0.0168,-0.0157,-0.0171,-0.0167,-0.0151,-0.0135,-0.0113,-0.0123,-0.0054,-0.0044,-0.0071,-0.0092,-0.0204,-0.0295,-0.0407,-0.0488,-0.0515,-0.0458,-0.0466,-0.0579,-0.0582,-0.0545,-0.0545,-0.0544,-0.0544,-0.0544,0,-0.0127,-0.0122,-0.0115,-0.0092,-0.0096,-0.0078,-0.0051,-0.0062,-0.0022,0.0046,0.0103,0.0107,0.0142,0.001,-0.019,-0.0342,-0.041,-0.0435,-0.051,-0.0555,-0.0571,-0.0575,-0.0578,-0.0453,-0.0452,-0.0451,-0.045,0,-0.0077,-0.0079,-0.0066,-0.0019,0.0013,0.0057,0.0095,0.0152,0.018,0.0261,0.0377,0.042,0.03,0.0164,-0.007,-0.0199,-0.0418,-0.0424,-0.0469,-0.0486,-0.0467,-0.0484,-0.049,-0.0443,-0.0444,-0.0444,-0.0445,-0.0445,-0.0026,-0.0001,0.0022,0.0071,0.0119,0.0205,0.0261,0.034,0.0456,0.0611,0.0611,0.0691,0.047,0.0209,-0.0025,-0.0307,-0.0322,-0.0438,-0.0441,-0.0445,-0.045,-0.0432,-0.04,-0.0401,-0.0401,-0.0401,-0.0402,0,0.0048,0.0072,0.0119,0.0186,0.0261,0.0264,0.0375,0.0476,0.0655,0.0778,0.0899,0.0759,0.0589,0.0313,-0.0083,-0.0322,-0.0359,-0.0405,-0.0407,-0.0412,-0.0417,-0.0422,-0.0364,-0.0365,-0.0366,-0.0366,0,0,0.0093,0.0151,0.0171,0.0304,0.0357,0.0468,0.0542,0.0736,0.0845,0.101,0.1038,0.1056,0.0696,0.042,0.0094,-0.0136,-0.0221,-0.0181,-0.0184,-0.0151,-0.0153,-0.0407,-0.0417,0,0,0,0,0]}],[{"header":{"parameterUnit":"m.s-1","parameterCategory":2,"la1":30.2991,"la2":30.254,"lo1":-89.0895,"lo2":-89.0444,"dy":0.0017,"dx":0.0017,"nx":28,"ny":28,"refTime":"2024-05-28T21:00:00:Z","depth":"4","parameterNumber":2,"parameterNumberName":"U-component_of_CURRENTS"},"data":[0,0,0,0,0,0,0,0,0,0,0,0,0,0,0,0,0,0,0,0,0,0,0,0,0,0,0,0,0,0,0,0,0,0,0,0,0,0,0,0,0,0,0,0,0,0,0,0,0,0,0,0,0,0,0,0,0,0,0.0505,0.0505,0,0.0524,0.0524,0.0523,0.0472,0.0471,0.047,0.0469,0.0711,0.0718,0.0725,0,0,0,0,0,0,0,0,0,0,0,0,0,0.0557,0.0555,0.0505,0.0505,0.0506,0.0524,0.0524,0.0523,0.0472,0.0471,0.047,0.0469,0.0708,0.0717,0.0726,0,0,0,0,0,0,0,0,0,0,0,0,0,0.0544,0.0554,0.0504,0.0488,0.0487,0.0524,0.0524,0.0523,0.0472,0.0471,0.0469,0.0468,0.0705,0.0716,0.0727,0.0823,0,0,0.076,0.0765,0,0,0,0,0,0,0,0,0.0545,0.0541,0.049,0.0489,0.0489,0.05,0.0631,0.0637,0.0473,0.047,0.0469,0.0467,0.0667,0.0681,0.0674,0.0834,0.0844,0.0761,0.0768,0.0773,0.0776,0,0,0,0,0,0,0,0.0545,0.0541,0.0505,0.0491,0.0491,0.0527,0.0521,0.0631,0.0575,0.047,0.0469,0.0483,0.0667,0.0663,0.068,0.0848,0.0761,0.0771,0.0777,0.0782,0.112,0.1123,0,0,0,0,0,0,0.0552,0.0541,0.0504,0.0506,0.0522,0.0527,0.052,0.0492,0.0569,0.0579,0.0484,0.048,0.0645,0.0667,0.0689,0.0863,0.0773,0.0783,0.0789,0.1118,0.1121,0.1123,0,0,0,0,0,0,0.0552,0.0547,0.0504,0.0533,0.0531,0.0527,0.0496,0.0493,0.0517,0.0578,0.0591,0.0514,0.0645,0.0674,0.0795,0.087,0.0788,0.0798,0.1115,0.1119,0.1122,0.1177,0,0,0,0,0,0,0.0553,0.0545,0.0538,0.0531,0.0529,0.0523,0.0498,0.0495,0.053,0.0526,0.061,0.0627,0.0646,0.0779,0.0806,0.0884,0.0806,0.1112,0.1117,0.1121,0.1172,0.1182,0.1191,0,0,0,0,0,0.0554,0.0543,0.0536,0.0533,0.0513,0.0525,0.0526,0.0516,0.0534,0.0535,0.06,0.0626,0.0826,0.079,0.0822,0.0904,0.111,0.1115,0.1121,0.1168,0.118,0.119,0,0,0,0,0,0,0.0548,0.0537,0.0529,0.051,0.052,0.0518,0.0531,0.0548,0.0597,0.0609,0.067,0.0693,0.0832,0.0861,0.0819,0.101,0.097,0.0982,0.0995,0.1007,0.1016,0.0936,0.0815,0,0,0,0,0,0.0549,0.0539,0.0539,0.0526,0.0536,0.0549,0.0564,0.0559,0.0601,0.0618,0.0672,0.0756,0.0877,0.0932,0.1014,0.1134,0.1122,0.1201,0.121,0.1218,0.1172,0.1269,0.1282,0.1141,0.1141,0.1141,0,0,0.0545,0.0541,0.0534,0.0528,0.0535,0.0549,0.0551,0.0572,0.0593,0.0651,0.0707,0.0807,0.0919,0.1032,0.1097,0.1068,0.1245,0.1225,0.1231,0.118,0.1276,0.129,0.1302,0.1145,0.1144,0.1144,0,0,0.0536,0.0528,0.0521,0.0534,0.0555,0.0568,0.059,0.0603,0.0615,0.0696,0.0761,0.0871,0.1026,0.109,0.1164,0.1278,0.1303,0.1348,0.1328,0.1425,0.1436,0.1446,0.141,0.1416,0.134,0.134,0.134,0,0.0542,0.052,0.0526,0.0531,0.0557,0.0587,0.0605,0.0626,0.0674,0.0717,0.0712,0.094,0.1035,0.1202,0.1234,0.1298,0.1324,0.1283,0.1435,0.1445,0.1455,0.1415,0.1421,0.1343,0.1343,0.1343,0.1342,0,0.0516,0.0523,0.0529,0.0542,0.0568,0.0592,0.0627,0.0651,0.0699,0.074,0.0882,0.0976,0.1103,0.1181,0.1254,0.14,0.1385,0.1449,0.14,0.1472,0.1425,0.1431,0.1348,0.1347,0.1346,0.1345,0,0,0.0484,0.0509,0.0515,0.0536,0.0584,0.0602,0.0649,0.0716,0.0773,0.0817,0.0902,0.108,0.1129,0.1209,0.1316,0.1386,0.1481,0.1451,0.1455,0.1395,0.1625,0.156,0.1558,0.1617,0.1619,0.1621,0.155,0,0.0478,0.0489,0.0512,0.0556,0.0578,0.0627,0.068,0.0744,0.0812,0.0889,0.0988,0.1136,0.1149,0.1259,0.132,0.1472,0.1507,0.1487,0.1576,0.1574,0.1498,0.1568,0.1629,0.1554,0.1555,0.1556,0.1557,0,0.0454,0.0472,0.0504,0.0581,0.0599,0.0629,0.0728,0.079,0.091,0.0977,0.1074,0.1167,0.1281,0.1307,0.1436,0.1444,0.152,0.1584,0.1586,0.1498,0.1522,0.1481,0.1566,0.1566,0.1565,0.1564,0.1564,0,0.0429,0.048,0.0514,0.0533,0.0612,0.0643,0.0708,0.0818,0.0903,0.1059,0.1138,0.1241,0.1352,0.142,0.1522,0.1524,0.1648,0.1669,0.1632,0.1622,0.1672,0.1662,0.1754,0.1754,0.1754,0.1754,0.1754,0,0.0422,0.0452,0.0502,0.0513,0.0572,0.0649,0.0752,0.0819,0.0967,0.1076,0.12,0.1265,0.1417,0.1498,0.1531,0.1569,0.1647,0.1598,0.1624,0.169,0.1684,0.1672,0.1663,0.1751,0.1752,0.1753,0.1753,0,0.0393,0.0429,0.0464,0.053,0.0557,0.0607,0.0759,0.0836,0.0995,0.1126,0.1196,0.1344,0.1435,0.1514,0.1653,0.161,0.165,0.1665,0.1645,0.1676,0.1519,0.1515,0.1533,0.153,0.1528,0.1527,0.1525,0,0.038,0.0392,0.0445,0.0475,0.0504,0.0604,0.0671,0.083,0.0903,0.1128,0.1156,0.1337,0.1412,0.1475,0.1578,0.1595,0.163,0.1599,0.1594,0.1484,0.1508,0.1507,0.1505,0.1522,0.1521,0.1521,0.152,0,0.035,0.0367,0.0383,0.0422,0.0473,0.0564,0.0652,0.0702,0.0894,0.1032,0.1132,0.1228,0.1338,0.1404,0.15,0.1504,0.1576,0.1577,0.158,0.1575,0.1472,0.1497,0.1498,0.1513,0.1514,0.1515,0.1516,0,0.0313,0.0311,0.0324,0.0362,0.0425,0.0483,0.0562,0.0649,0.0754,0.0969,0.0978,0.1158,0.1296,0.1357,0.1395,0.1446,0.1414,0.1368,0.1381,0.139,0.1394,0.1245,0.1223,0,0,0,0,0,0.0273,0.0255,0.0276,0.0303,0.0367,0.0416,0.0521,0.0611,0.0751,0.0794,0.0902,0.0992,0.1126,0.1195,0.1221,0.1316,0.1405,0.1338,0.1354,0.1475,0.1483,0.1511,0,0,0,0,0,0,0.0239,0.0234,0.0234,0.0242,0.0275,0.0346,0.042,0.0533,0.0559,0.0714,0.0781,0.092,0.1045,0.1106,0.1196,0.1223,0.1213,0.1443,0.1441,0.1471,0.1478,0.1484,0.1516,0,0,0,0,0]},{"header":{"parameterUnit":"m.s-1","parameterCategory":2,"la1":30.2991,"la2":30.254,"lo1":-89.0895,"lo2":-89.0444,"dy":0.0017,"dx":0.0017,"nx":28,"ny":28,"refTime":"2024-05-28T21:00:00:Z","depth":"4","parameterNumber":3,"parameterNumberName":"V-component_of_CURRENTS"},"data":[0,0,0,0,0,0,0,0,0,0,0,0,0,0,0,0,0,0,0,0,0,0,0,0,0,0,0,0,0,0,0,0,0,0,0,0,0,0,0,0,0,0,0,0,0,0,0,0,0,0,0,0,0,0,0,0,0,0,0.0465,0.0466,0,0.0499,0.05,0.05,0.0504,0.0504,0.0503,0.0503,0.0495,0.0495,0.0495,0,0,0,0,0,0,0,0,0,0,0,0,0,0.0349,0.0352,0.0465,0.0466,0.0466,0.0499,0.05,0.05,0.0504,0.0504,0.0503,0.0503,0.0495,0.0495,0.0495,0,0,0,0,0,0,0,0,0,0,0,0,0,0.0392,0.0352,0.0465,0.0473,0.0474,0.0499,0.05,0.05,0.0504,0.0504,0.0503,0.0503,0.0495,0.0495,0.0495,0.0501,0,0,0.0495,0.0495,0,0,0,0,0,0,0,0,0.0389,0.0396,0.0471,0.0473,0.0474,0.0498,0.0456,0.0499,0.0504,0.0491,0.0503,0.0503,0.0494,0.0494,0.0499,0.0501,0.05,0.0495,0.0495,0.0495,0.0495,0,0,0,0,0,0,0,0.0386,0.0394,0.0477,0.0472,0.0474,0.0457,0.0463,0.0464,0.0492,0.0492,0.0493,0.0499,0.0494,0.0499,0.0499,0.05,0.0495,0.0495,0.0495,0.0495,0.0464,0.0463,0,0,0,0,0,0,0.0389,0.0392,0.0476,0.0478,0.0432,0.046,0.0466,0.049,0.0493,0.0494,0.05,0.05,0.05,0.0499,0.0499,0.0519,0.0495,0.0495,0.0495,0.0464,0.0463,0.0463,0,0,0,0,0,0,0.0387,0.0397,0.0475,0.0436,0.0445,0.0463,0.0488,0.0491,0.0512,0.0499,0.0499,0.0521,0.0499,0.0499,0.0529,0.0518,0.0495,0.0495,0.0465,0.0464,0.0463,0.0551,0,0,0,0,0,0,0.0384,0.0396,0.042,0.0437,0.0447,0.05,0.0489,0.0491,0.0517,0.0517,0.0517,0.0515,0.0499,0.053,0.0529,0.0518,0.0495,0.0466,0.0465,0.0463,0.055,0.0553,0.0557,0,0,0,0,0,0.038,0.0414,0.0421,0.0431,0.0478,0.0501,0.0505,0.0514,0.0518,0.0532,0.0545,0.0516,0.0517,0.0532,0.0531,0.0519,0.0467,0.0465,0.0463,0.0548,0.0553,0.0557,0,0,0,0,0,0,0.0377,0.0418,0.0426,0.0472,0.0489,0.0502,0.0522,0.0528,0.055,0.0554,0.0543,0.0542,0.0555,0.0525,0.0541,0.0496,0.0472,0.047,0.0536,0.054,0.0543,0.0541,0.0495,0,0,0,0,0,0.0388,0.0425,0.0451,0.0487,0.0501,0.0515,0.0529,0.0534,0.0552,0.0562,0.0561,0.0547,0.0542,0.0538,0.0526,0.0527,0.047,0.0501,0.0505,0.0509,0.0502,0.0414,0.0409,0.0457,0.0457,0.0457,0,0,0.0399,0.0425,0.0448,0.0489,0.0505,0.053,0.0524,0.055,0.0565,0.0557,0.0583,0.0576,0.0548,0.0547,0.0544,0.0526,0.0467,0.0507,0.0511,0.0501,0.0411,0.0407,0.0403,0.0455,0.0455,0.0456,0,0,0.0428,0.0462,0.0498,0.0515,0.0543,0.0551,0.0565,0.0585,0.059,0.062,0.0606,0.0602,0.0599,0.057,0.0557,0.0569,0.0498,0.0547,0.0561,0.0477,0.0473,0.0468,0.0407,0.0396,0.0538,0.0538,0.0538,0,0.0435,0.0489,0.0509,0.0538,0.0558,0.0566,0.0597,0.0604,0.0628,0.0628,0.0634,0.0613,0.0602,0.0581,0.0587,0.0578,0.0524,0.056,0.0484,0.0478,0.0472,0.0409,0.0396,0.0542,0.0542,0.0541,0.0541,0,0.0482,0.0525,0.0547,0.0591,0.061,0.0639,0.065,0.0656,0.0666,0.0669,0.0664,0.0651,0.0625,0.0614,0.0619,0.0562,0.0538,0.0512,0.0482,0.0473,0.0407,0.0392,0.0548,0.0547,0.0545,0.0544,0,0,0.0494,0.0568,0.0576,0.0602,0.064,0.0657,0.0674,0.0689,0.0693,0.0695,0.0687,0.0682,0.0662,0.0643,0.062,0.0559,0.0493,0.0526,0.052,0.0481,0.0317,0.0307,0.029,0.0454,0.0452,0.045,0.0296,0,0.0525,0.0593,0.0619,0.0673,0.0708,0.0709,0.0727,0.0732,0.0731,0.072,0.0684,0.0684,0.0674,0.0667,0.0602,0.0526,0.0453,0.0538,0.0316,0.0309,0.0315,0.0272,0.0442,0.0284,0.028,0.0278,0.0276,0,0.056,0.0601,0.0671,0.0715,0.073,0.0756,0.0765,0.0788,0.0767,0.0762,0.0731,0.0703,0.0641,0.0624,0.0462,0.0516,0.0419,0.0351,0.0343,0.0288,0.027,0.0286,0.0248,0.025,0.0252,0.0254,0.0256,0,0.056,0.0631,0.0691,0.071,0.0763,0.0776,0.0803,0.0803,0.082,0.0793,0.0781,0.07,0.0657,0.0525,0.0396,0.042,0.0198,0.0203,0.0095,0.0094,0.0114,0.012,0.0054,0.0054,0.0054,0.0054,0.0055,0,0.0582,0.0623,0.0698,0.0726,0.0773,0.0807,0.0856,0.0845,0.0854,0.0861,0.0814,0.0763,0.0626,0.049,0.0371,0.0185,0.0163,0.0082,0.0042,0.0157,0.0169,0.0104,0.0112,0.0049,0.005,0.0051,0.0052,0,0.0574,0.0635,0.0695,0.0761,0.0783,0.0821,0.0901,0.0926,0.0932,0.0921,0.0913,0.0798,0.0624,0.0468,0.0242,0.0154,-0.0018,-0.0087,0.0051,0.0023,-0.0055,-0.0041,-0.0215,-0.0217,-0.0219,-0.022,-0.0221,0,0.0579,0.062,0.0711,0.0759,0.0795,0.0872,0.0922,0.096,0.0974,0.0927,0.0893,0.0744,0.0646,0.0322,0.0165,-0.0081,-0.0109,-0.0187,-0.0119,-0.0067,-0.0089,-0.0072,-0.0057,-0.0224,-0.0224,-0.0225,-0.0225,0,0.0574,0.062,0.0666,0.0762,0.0829,0.091,0.0966,0.097,0.0993,0.0992,0.0858,0.071,0.0503,0.0292,0.0096,-0.0075,-0.0121,-0.0204,-0.0201,-0.0137,-0.008,-0.0096,-0.0078,-0.023,-0.023,-0.0229,-0.0229,0,0.0563,0.0594,0.0674,0.0747,0.0837,0.0899,0.0947,0.0947,0.0961,0.0891,0.0834,0.0647,0.0541,0.0288,0.0103,-0.0058,-0.0082,-0.0106,-0.0108,-0.0104,-0.0012,0.0081,-0.0074,0,0,0,0,0,0.0545,0.0581,0.0657,0.0736,0.0825,0.0882,0.0945,0.0986,0.098,0.0884,0.0865,0.0674,0.0409,0.029,0.0122,0.0079,-0.0107,-0.012,-0.0135,-0.0261,-0.0255,-0.0165,0,0,0,0,0,0,0.054,0.0599,0.0637,0.071,0.0767,0.0862,0.0908,0.0918,0.0864,0.0834,0.0686,0.0639,0.0372,0.0493,0.0115,0.0068,0.004,-0.0238,-0.0241,-0.0265,-0.0259,-0.0254,-0.0159,0,0,0,0,0]}]]